Time,TemperatureF,DewpointF,PressureIn,WindDirection,WindDirectionDegrees,WindSpeedMPH,WindSpeedGustMPH,Humidity,HourlyPrecipIn,Conditions,Clouds,dailyrainin,SoftwareType,DateUTC
2013-03-04 00:01:00,33.0,33.0,-100.00,SSE,155,7.0,11.0,99,-99.99,,,-99.99,,2013-03-04 06:01:00,
2013-03-04 00:32:00,33.0,33.0,-100.00,SSE,160,11.0,14.0,99,-99.99,,,-99.99,,2013-03-04 06:32:00,
2013-03-04 00:42:00,33.0,33.0,-100.00,SSE,160,11.0,14.0,99,-99.99,,,-99.99,,2013-03-04 06:42:00,
2013-03-04 00:52:00,33.0,33.0,-100.00,SSE,160,11.0,14.0,99,-99.99,,,-99.99,,2013-03-04 06:52:00,
2013-03-04 01:01:00,33.0,33.0,-100.00,SSE,160,11.0,14.0,99,-99.99,,,-99.99,,2013-03-04 07:01:00,
2013-03-04 01:02:00,33.0,33.0,-100.00,SW,215,4.0,9.0,99,-99.99,,,-99.99,,2013-03-04 07:02:00,
2013-03-04 01:32:00,33.0,33.0,-100.00,SW,215,4.0,9.0,99,-99.99,,,-99.99,,2013-03-04 07:32:00,
2013-03-04 01:42:00,33.0,33.0,-100.00,SW,215,4.0,9.0,99,-99.99,,,-99.99,,2013-03-04 07:42:00,
2013-03-04 01:52:00,33.0,33.0,-100.00,SW,215,4.0,9.0,99,-99.99,,,-99.99,,2013-03-04 07:52:00,
2013-03-04 02:32:00,33.0,33.0,-100.00,SE,145,7.0,9.0,99,-99.99,,,-99.99,,2013-03-04 08:32:00,
2013-03-04 02:42:00,33.0,33.0,-100.00,SE,145,7.0,9.0,99,-99.99,,,-99.99,,2013-03-04 08:42:00,
2013-03-04 02:52:00,33.0,33.0,-100.00,SE,145,7.0,9.0,99,-99.99,,,-99.99,,2013-03-04 08:52:00,
2013-03-04 03:01:00,33.0,33.0,-100.00,SE,145,7.0,9.0,99,-99.99,,,-99.99,,2013-03-04 09:01:00,
2013-03-04 03:32:00,33.0,33.0,-100.00,South,175,4.0,8.0,99,-99.99,,,-99.99,,2013-03-04 09:32:00,
2013-03-04 03:42:00,33.0,33.0,-100.00,South,175,4.0,8.0,99,-99.99,,,-99.99,,2013-03-04 09:42:00,
2013-03-04 03:52:00,33.0,33.0,-100.00,South,175,4.0,8.0,99,-99.99,,,-99.99,,2013-03-04 09:52:00,
2013-03-04 04:01:00,33.0,33.0,-100.00,South,175,4.0,8.0,99,-99.99,,,-99.99,,2013-03-04 10:01:00,
2013-03-04 04:32:00,33.0,33.0,-100.00,SSW,205,2.0,3.0,99,-99.99,,,-99.99,,2013-03-04 10:32:00,
2013-03-04 04:42:00,33.0,33.0,-100.00,SSW,205,2.0,3.0,99,-99.99,,,-99.99,,2013-03-04 10:42:00,
2013-03-04 04:52:00,33.0,33.0,-100.00,SSW,205,2.0,3.0,99,-99.99,,,-99.99,,2013-03-04 10:52:00,
2013-03-04 05:01:00,33.0,33.0,-100.00,SSW,205,2.0,3.0,99,-99.99,,,-99.99,,2013-03-04 11:01:00,
2013-03-04 05:32:00,33.0,33.0,-100.00,South,190,2.0,2.0,99,-99.99,,,-99.99,,2013-03-04 11:32:00,
2013-03-04 05:42:00,33.0,33.0,-100.00,South,190,2.0,2.0,99,-99.99,,,-99.99,,2013-03-04 11:42:00,
2013-03-04 05:52:00,33.0,33.0,-100.00,South,190,2.0,2.0,99,-99.99,,,-99.99,,2013-03-04 11:52:00,
2013-03-04 06:01:00,33.0,33.0,-100.00,South,190,2.0,2.0,99,-99.99,,,-99.99,,2013-03-04 12:01:00,
2013-03-04 06:02:00,34.0,33.0,-100.00,WSW,255,4.0,4.0,99,-99.99,,,-99.99,,2013-03-04 12:02:00,
2013-03-04 06:32:00,34.0,33.0,-100.00,WSW,255,4.0,4.0,99,-99.99,,,-99.99,,2013-03-04 12:32:00,
2013-03-04 06:42:00,34.0,33.0,-100.00,WSW,255,4.0,4.0,99,-99.99,,,-99.99,,2013-03-04 12:42:00,
2013-03-04 06:53:00,34.0,33.0,-100.00,WSW,255,4.0,4.0,99,-99.99,,,-99.99,,2013-03-04 12:53:00,
2013-03-04 07:32:00,33.0,33.0,-100.00,West,270,12.0,14.0,99,-99.99,,,-99.99,,2013-03-04 13:32:00,
2013-03-04 07:42:00,33.0,33.0,-100.00,West,270,12.0,14.0,99,-99.99,,,-99.99,,2013-03-04 13:42:00,
2013-03-04 07:52:00,33.0,33.0,-100.00,West,270,12.0,14.0,99,-99.99,,,-99.99,,2013-03-04 13:52:00,
2013-03-04 08:01:00,33.0,33.0,-100.00,West,270,12.0,14.0,99,-99.99,,,-99.99,,2013-03-04 14:01:00,
2013-03-04 08:32:00,30.0,30.0,-100.00,West,275,12.0,16.0,99,-99.99,,,-99.99,,2013-03-04 14:32:00,
2013-03-04 08:42:00,30.0,30.0,-100.00,West,275,12.0,16.0,99,-99.99,,,-99.99,,2013-03-04 14:42:00,
2013-03-04 08:52:00,30.0,30.0,-100.00,West,275,12.0,16.0,99,-99.99,,,-99.99,,2013-03-04 14:52:00,
2013-03-04 09:01:00,30.0,30.0,-100.00,West,275,12.0,16.0,99,-99.99,,,-99.99,,2013-03-04 15:01:00,
2013-03-04 09:02:00,30.0,27.0,-100.00,West,275,14.0,20.0,90,-99.99,,,-99.99,,2013-03-04 15:02:00,
2013-03-04 09:32:00,30.0,27.0,-100.00,West,275,14.0,20.0,90,-99.99,,,-99.99,,2013-03-04 15:32:00,
2013-03-04 09:42:00,30.0,27.0,-100.00,West,275,14.0,20.0,90,-99.99,,,-99.99,,2013-03-04 15:42:00,
2013-03-04 09:52:00,30.0,27.0,-100.00,West,275,14.0,20.0,90,-99.99,,,-99.99,,2013-03-04 15:52:00,
2013-03-04 10:02:00,32.0,28.0,-100.00,West,280,11.0,12.0,86,-99.99,,,-99.99,,2013-03-04 16:02:00,
2013-03-04 10:32:00,32.0,28.0,-100.00,West,280,11.0,12.0,86,-99.99,,,-99.99,,2013-03-04 16:32:00,
2013-03-04 10:42:00,32.0,28.0,-100.00,West,280,11.0,12.0,86,-99.99,,,-99.99,,2013-03-04 16:42:00,
2013-03-04 10:52:00,32.0,28.0,-100.00,West,280,11.0,12.0,86,-99.99,,,-99.99,,2013-03-04 16:52:00,
2013-03-04 11:32:00,33.0,29.0,-100.00,West,270,9.0,12.0,86,-99.99,,,-99.99,,2013-03-04 17:32:00,
2013-03-04 11:42:00,33.0,29.0,-100.00,West,270,9.0,12.0,86,-99.99,,,-99.99,,2013-03-04 17:42:00,
2013-03-04 11:52:00,33.0,29.0,-100.00,West,270,9.0,12.0,86,-99.99,,,-99.99,,2013-03-04 17:52:00,
2013-03-04 12:01:00,33.0,29.0,-100.00,West,270,9.0,12.0,86,-99.99,,,-99.99,,2013-03-04 18:01:00,
2013-03-04 12:02:00,33.0,29.0,-100.00,WNW,290,5.0,6.0,87,-99.99,,,-99.99,,2013-03-04 18:02:00,
2013-03-04 12:32:00,33.0,29.0,-100.00,WNW,290,5.0,6.0,87,-99.99,,,-99.99,,2013-03-04 18:32:00,
2013-03-04 12:42:00,33.0,29.0,-100.00,WNW,290,5.0,6.0,87,-99.99,,,-99.99,,2013-03-04 18:42:00,
2013-03-04 12:52:00,33.0,29.0,-100.00,WNW,290,5.0,6.0,87,-99.99,,,-99.99,,2013-03-04 18:52:00,
2013-03-04 13:32:00,30.0,29.0,-100.00,WNW,300,7.0,9.0,96,-99.99,,,-99.99,,2013-03-04 19:32:00,
2013-03-04 13:42:00,30.0,29.0,-100.00,WNW,300,7.0,9.0,96,-99.99,,,-99.99,,2013-03-04 19:42:00,
2013-03-04 13:52:00,30.0,29.0,-100.00,WNW,300,7.0,9.0,96,-99.99,,,-99.99,,2013-03-04 19:52:00,
2013-03-04 14:01:00,30.0,29.0,-100.00,WNW,300,7.0,9.0,96,-99.99,,,-99.99,,2013-03-04 20:01:00,
2013-03-04 14:02:00,27.0,27.0,-100.00,WNW,290,14.0,16.0,98,-99.99,,,-99.99,,2013-03-04 20:02:00,
2013-03-04 14:32:00,27.0,27.0,-100.00,WNW,290,14.0,16.0,98,-99.99,,,-99.99,,2013-03-04 20:32:00,
2013-03-04 14:42:00,27.0,27.0,-100.00,WNW,290,14.0,16.0,98,-99.99,,,-99.99,,2013-03-04 20:42:00,
2013-03-04 14:52:00,27.0,27.0,-100.00,WNW,290,14.0,16.0,98,-99.99,,,-99.99,,2013-03-04 20:52:00,
2013-03-04 15:02:00,26.0,25.0,-100.00,WNW,290,11.0,14.0,97,-99.99,,,-99.99,,2013-03-04 21:02:00,
2013-03-04 15:32:00,26.0,25.0,-100.00,WNW,290,11.0,14.0,97,-99.99,,,-99.99,,2013-03-04 21:32:00,
2013-03-04 15:43:00,26.0,25.0,-100.00,WNW,290,11.0,14.0,97,-99.99,,,-99.99,,2013-03-04 21:43:00,
2013-03-04 15:53:00,26.0,25.0,-100.00,WNW,290,11.0,14.0,97,-99.99,,,-99.99,,2013-03-04 21:53:00,
2013-03-04 16:32:00,25.0,25.0,-100.00,NW,315,13.0,19.0,99,-99.99,,,-99.99,,2013-03-04 22:32:00,
2013-03-04 16:43:00,25.0,25.0,-100.00,NW,315,13.0,19.0,99,-99.99,,,-99.99,,2013-03-04 22:43:00,
2013-03-04 16:52:00,25.0,25.0,-100.00,NW,315,13.0,19.0,99,-99.99,,,-99.99,,2013-03-04 22:52:00,
2013-03-04 17:01:00,25.0,25.0,-100.00,NW,315,13.0,19.0,99,-99.99,,,-99.99,,2013-03-04 23:01:00,
2013-03-04 17:02:00,25.0,24.0,-100.00,NW,315,8.0,14.0,99,-99.99,,,-99.99,,2013-03-04 23:02:00,
2013-03-04 17:32:00,25.0,24.0,-100.00,NW,315,8.0,14.0,99,-99.99,,,-99.99,,2013-03-04 23:32:00,
2013-03-04 17:42:00,25.0,24.0,-100.00,NW,315,8.0,14.0,99,-99.99,,,-99.99,,2013-03-04 23:42:00,
2013-03-04 17:52:00,25.0,24.0,-100.00,NW,315,8.0,14.0,99,-99.99,,,-99.99,,2013-03-04 23:52:00,
2013-03-04 19:33:00,24.0,23.0,-100.00,NW,310,8.0,14.0,99,-99.99,,,-99.99,,2013-03-05 01:33:00,
2013-03-04 19:42:00,24.0,23.0,-100.00,NW,310,8.0,14.0,99,-99.99,,,-99.99,,2013-03-05 01:42:00,
2013-03-04 19:52:00,24.0,23.0,-100.00,NW,310,8.0,14.0,99,-99.99,,,-99.99,,2013-03-05 01:52:00,
2013-03-04 20:01:00,24.0,23.0,-100.00,NW,310,8.0,14.0,99,-99.99,,,-99.99,,2013-03-05 02:01:00,
2013-03-04 20:02:00,23.0,23.0,-100.00,NNW,335,9.0,16.0,99,-99.99,,,-99.99,,2013-03-05 02:02:00,
2013-03-04 20:32:00,23.0,23.0,-100.00,NNW,335,9.0,16.0,99,-99.99,,,-99.99,,2013-03-05 02:32:00,
2013-03-04 20:42:00,23.0,23.0,-100.00,NNW,335,9.0,16.0,99,-99.99,,,-99.99,,2013-03-05 02:42:00,
2013-03-04 20:52:00,23.0,23.0,-100.00,NNW,335,9.0,16.0,99,-99.99,,,-99.99,,2013-03-05 02:52:00,
2013-03-04 21:32:00,23.0,22.0,-100.00,North,0,16.0,21.0,99,-99.99,,,-99.99,,2013-03-05 03:32:00,
2013-03-04 21:42:00,23.0,22.0,-100.00,North,0,16.0,21.0,99,-99.99,,,-99.99,,2013-03-05 03:42:00,
2013-03-04 21:52:00,23.0,22.0,-100.00,North,0,16.0,21.0,99,-99.99,,,-99.99,,2013-03-05 03:52:00,
2013-03-04 22:01:00,23.0,22.0,-100.00,North,0,16.0,21.0,99,-99.99,,,-99.99,,2013-03-05 04:01:00,
2013-03-04 22:02:00,22.0,22.0,-100.00,North,0,14.0,21.0,99,-99.99,,,-99.99,,2013-03-05 04:02:00,
2013-03-04 22:32:00,22.0,22.0,-100.00,North,0,14.0,21.0,99,-99.99,,,-99.99,,2013-03-05 04:32:00,
2013-03-04 22:42:00,22.0,22.0,-100.00,North,0,14.0,21.0,99,-99.99,,,-99.99,,2013-03-05 04:42:00,
2013-03-04 22:52:00,22.0,22.0,-100.00,North,0,14.0,21.0,99,-99.99,,,-99.99,,2013-03-05 04:52:00,
2013-03-04 23:32:00,22.0,21.0,-100.00,North,0,17.0,19.0,99,-99.99,,,-99.99,,2013-03-05 05:32:00,
2013-03-04 23:42:00,22.0,21.0,-100.00,North,0,17.0,19.0,99,-99.99,,,-99.99,,2013-03-05 05:42:00,
2013-03-04 23:52:00,22.0,21.0,-100.00,North,0,17.0,19.0,99,-99.99,,,-99.99,,2013-03-05 05:52:00,